sat.trackr.live / text

‹ back to catalog

STARLINK-1882

NORAD 46784 · 2020-074AX

PAYLOAD ACTIVE UNKNOWN

§ Identity

Operator
Country
US
Launch date
2020-10-24
Launch site
AFETR
Launch vehicle
Mass (kg)
RCS (m²)

Purposes: comms

External: N2YO · Heavens-Above · Gunter

§ Orbital elements

Epoch: 2026-05-25T00:00:02.000160Z

Period
91.19 min
Inclination
53.0442°
Eccentricity
0.0005717
Mean motion
15.79179134 rev/d
Perigee alt
328.9 km
Apogee alt
336.6 km
Semi-major
6,710.9 km
B*
5.6900e-5
RAAN
257.2193°
Arg perigee
340.6459°
Mean anomaly
74.9636°
Rev number
600

§ Raw data

STARLINK-18821 46784U 20074AX  26145.00002315  .00009727  00000+0  56900-4 0  99992 46784  53.0442 257.2193 0005717 340.6459  74.9636 15.79179134  6007

JSON: /api/v1/satellites/46784 · /tle

For live sub-satellite position, see the globe view (requires WebGL).

§ Visibility from observer

Set your observer location to see the next 7 days of passes ≥ 10°. The values pass through the URL so the page stays shareable.

No JS? Fill the form by hand. The geolocation button needs JavaScript.